Weather History for KTOI - July, 2013

Change the Weather History Date:

Monday, July 8, 2013

  Actual Average Record
Temperature  
Mean Temperature 81 °F 81 °F  
Max Temperature 90 °F 92 °F 98 °F (2011)
Min Temperature 72 °F 70 °F 66 °F (2005)
Cooling Degree Days 16 16  
Month to date cooling degree days 94 121  
Year to date cooling degree days 831 796  
Since 1 June cooling degree days 539 509  
Growing Degree Days 30 (Base 50)    
Moisture  
Dew Point 71 °F    
Average Humidity 75    
Maximum Humidity 93    
Minimum Humidity 56    
Precipitation  
Precipitation 0.76 in 0.19 in 1.34 in (2007)
Month to date precipitation 5.07 1.54  
Year to date precipitation 34.18 29.20  
Sea Level Pressure  
Sea Level Pressure 30.17 in    
Wind  
Wind Speed 2 mph (West)    
Max Wind Speed 16 mph    
Max Gust Speed 21 mph    
Visibility 5 miles    
Events Fog , Rain , Thunderstorm    
T = Trace of Precipitation, MM = Missing Value Source: NWS Daily Summary

Daily Weather History Graph

Daily Weather History Graph

Search for Another Location

Airport or City:

Trip Planner

Search our weather history database for the weather conditions in past years. The results will help you decide how hot, cold, wet, or windy it might be!

Date:

Astronomy

Jul. 08, 2013 Rise Set
Actual Time 5:45 AM CDT 7:52 PM CDT
Civil Twilight 5:17 AM CDT 8:20 PM CDT
Nautical Twilight 4:43 AM CDT 8:54 PM CDT
Astronomical Twilight 4:06 AM CDT 9:31 PM CDT
Moon 6:08 AM CDT (7/8) 8:01 PM CDT (7/8)
Length of Visible Light 15h 03m
Length of Day
14h 07m
New Moon, 0% of the Moon is Illuminated
Jul 8
New Moon
Jul 15
First Quarter
Jul 22
Full
Jul 29
Last Quarter
Aug 6
New

Hourly Weather History & Observations

Time (CDT) Temp. Heat Index Dew Point Humidity Pressure Visibility Wind Dir Wind Speed Gust Speed Precip Events Conditions
12:36 AM 73.4 °F - 71.6 °F 94% 30.16 in 4.0 mi Calm Calm - N/A   Scattered Clouds
12:45 AM 73.4 °F - 71.6 °F 94% 30.15 in 4.0 mi Calm Calm - N/A   Mostly Cloudy
12:53 AM 73.9 °F - 71.1 °F 91% 30.14 in 6.0 mi Calm Calm - N/A   Mostly Cloudy
1:12 AM 73.4 °F - 71.6 °F 94% 30.15 in 1.8 mi Calm Calm - N/A   Overcast
1:15 AM 73.4 °F - 71.6 °F 94% 30.15 in 1.2 mi Calm Calm - N/A   Overcast
1:20 AM 73.4 °F - 71.6 °F 94% 30.15 in 0.8 mi Calm Calm - N/A   Overcast
1:30 AM 73.4 °F - 71.6 °F 94% 30.15 in 0.5 mi Calm Calm - N/A Fog Fog
1:53 AM 73.0 °F - 71.1 °F 93% 30.13 in 0.5 mi Calm Calm - N/A Fog Fog
2:18 AM 73.4 °F - 71.6 °F 94% 30.15 in 0.8 mi Calm Calm - N/A   Overcast
2:25 AM 73.4 °F - 71.6 °F 94% 30.15 in 1.2 mi Calm Calm - N/A   Overcast
2:29 AM 73.4 °F - 71.6 °F 94% 30.15 in 1.8 mi Calm Calm - N/A   Overcast
2:36 AM 73.4 °F - 71.6 °F 94% 30.15 in 2.0 mi Calm Calm - N/A   Overcast
2:42 AM 73.4 °F - 71.6 °F 94% 30.15 in 1.5 mi Calm Calm - N/A   Overcast
2:47 AM 73.4 °F - 71.6 °F 94% 30.15 in 1.0 mi Calm Calm - N/A   Overcast
2:53 AM 73.0 °F - 71.1 °F 93% 30.13 in 1.0 mi Calm Calm - N/A   Overcast
2:59 AM 73.4 °F - 71.6 °F 94% 30.15 in 0.5 mi Calm Calm - N/A Fog Fog
3:53 AM 73.0 °F - 70.0 °F 90% 30.14 in 0.2 mi Calm Calm - N/A Fog Fog
4:53 AM 73.0 °F - 70.0 °F 90% 30.15 in 0.5 mi Calm Calm - N/A Fog Fog
5:02 AM 71.6 °F - 69.8 °F 94% 30.17 in 1.0 mi Calm Calm - N/A   Overcast
5:05 AM 71.6 °F - 69.8 °F 94% 30.17 in 1.5 mi Calm Calm - N/A   Overcast
5:07 AM 71.6 °F - 69.8 °F 94% 30.17 in 2.0 mi Calm Calm - N/A   Overcast
5:23 AM 71.6 °F - 69.8 °F 94% 30.17 in 4.0 mi Calm Calm - N/A   Overcast
5:38 AM 71.6 °F - 69.8 °F 94% 30.17 in 7.0 mi Calm Calm - N/A   Mostly Cloudy
5:53 AM 72.0 °F - 70.0 °F 93% 30.16 in 6.0 mi Calm Calm - N/A   Mostly Cloudy
6:20 AM 73.4 °F - 69.8 °F 88% 30.18 in 7.0 mi Calm Calm - N/A   Mostly Cloudy
6:53 AM 73.0 °F - 70.0 °F 90% 30.17 in 10.0 mi Calm Calm - N/A   Mostly Cloudy
7:29 AM 73.4 °F - 71.6 °F 94% 30.19 in 10.0 mi ESE 3.5 mph - N/A   Scattered Clouds
7:40 AM 73.4 °F - 71.6 °F 94% 30.19 in 10.0 mi Calm Calm - N/A   Partly Cloudy
7:53 AM 75.0 °F - 71.1 °F 87% 30.18 in 10.0 mi SE 3.5 mph - N/A   Partly Cloudy
8:53 AM 78.1 °F - 72.0 °F 81% 30.19 in 10.0 mi Calm Calm - N/A   Clear
9:05 AM 78.8 °F - 71.6 °F 78% 30.20 in 10.0 mi Calm Calm - N/A   Partly Cloudy
9:53 AM 81.0 °F 85.8 °F 73.0 °F 77% 30.19 in 10.0 mi Calm Calm - N/A   Partly Cloudy
10:29 AM 84.2 °F 90.9 °F 73.4 °F 70% 30.21 in 10.0 mi Calm Calm - N/A   Mostly Cloudy
10:53 AM 84.0 °F 89.6 °F 72.0 °F 67% 30.19 in 10.0 mi Calm Calm - N/A   Mostly Cloudy
11:16 AM 84.2 °F 89.6 °F 71.6 °F 66% 30.21 in 10.0 mi South 5.8 mph - N/A   Partly Cloudy
11:53 AM 84.9 °F 89.4 °F 70.0 °F 61% 30.19 in 10.0 mi Calm Calm - N/A   Scattered Clouds
12:53 PM 86.0 °F 92.2 °F 72.0 °F 63% 30.16 in 10.0 mi SSE 5.8 mph - N/A   Mostly Cloudy
1:53 PM 89.1 °F 96.0 °F 72.0 °F 57% 30.14 in 10.0 mi South 5.8 mph - N/A   Partly Cloudy
2:53 PM 88.0 °F 93.8 °F 71.1 °F 57% 30.13 in 10.0 mi South 4.6 mph - N/A   Mostly Cloudy
3:53 PM 88.0 °F 93.8 °F 71.1 °F 57% 30.12 in 10.0 mi South 3.5 mph - N/A   Mostly Cloudy
4:53 PM 84.9 °F 91.4 °F 73.0 °F 67% 30.11 in 10.0 mi Calm Calm - 0.00 in   Partly Cloudy
5:53 PM 82.0 °F 86.7 °F 72.0 °F 71% 30.12 in 10.0 mi South 6.9 mph - 0.00 in Rain , Thunderstorm Light Thunderstorms and Rain
6:53 PM 77.0 °F - 72.0 °F 84% 30.12 in 7.0 mi NNE 3.5 mph - 0.01 in Rain , Thunderstorm Light Rain
7:10 PM 75.2 °F - 71.6 °F 89% 30.16 in 1.8 mi WNW 13.8 mph 19.6 mph 0.10 in Rain , Thunderstorm Heavy Rain
7:15 PM 75.2 °F - 71.6 °F 89% 30.18 in 2.0 mi West 10.4 mph 19.6 mph 0.14 in Rain Heavy Rain
7:18 PM 75.2 °F - 71.6 °F 89% 30.19 in 1.8 mi West 13.8 mph 19.6 mph 0.23 in Rain , Thunderstorm Heavy Rain
7:20 PM 75.2 °F - 71.6 °F 89% 30.18 in 1.2 mi West 8.1 mph 18.4 mph 0.31 in Rain , Thunderstorm Heavy Rain
7:22 PM 75.2 °F - 71.6 °F 89% 30.18 in 1.0 mi WNW 10.4 mph 18.4 mph 0.36 in Rain , Thunderstorm Heavy Rain
7:27 PM 75.2 °F - 71.6 °F 89% 30.18 in 1.0 mi WNW 13.8 mph 20.7 mph 0.42 in Rain , Thunderstorm Heavy Thunderstorms and Rain
7:30 PM 75.2 °F - 71.6 °F 89% 30.17 in 1.5 mi NW 11.5 mph 20.7 mph 0.44 in Rain , Thunderstorm Heavy Thunderstorms and Rain
7:32 PM 75.2 °F - 71.6 °F 89% 30.18 in 2.0 mi WNW 8.1 mph 20.7 mph 0.44 in Rain , Thunderstorm Heavy Thunderstorms and Rain
7:42 PM 75.2 °F - 71.6 °F 89% 30.20 in 6.0 mi Calm Calm - 0.45 in Rain , Thunderstorm Light Thunderstorms and Rain
7:53 PM 75.0 °F - 71.1 °F 87% 30.19 in 2.5 mi South 5.8 mph - 0.50 in Rain , Thunderstorm Heavy Thunderstorms and Rain
7:56 PM 73.4 °F - 71.6 °F 94% 30.20 in 1.8 mi SSE 6.9 mph - 0.04 in Rain , Thunderstorm Heavy Thunderstorms and Rain
7:59 PM 73.4 °F - 71.6 °F 94% 30.20 in 1.2 mi Variable 3.5 mph - 0.13 in Rain , Thunderstorm Heavy Thunderstorms and Rain
8:02 PM 73.4 °F - 71.6 °F 94% 30.19 in 1.0 mi Calm Calm - 0.16 in Rain , Thunderstorm Heavy Thunderstorms and Rain
8:10 PM 73.4 °F - 71.6 °F 94% 30.19 in 1.5 mi WNW 4.6 mph - 0.20 in Rain , Thunderstorm Thunderstorms and Rain
8:12 PM 73.4 °F - 71.6 °F 94% 30.18 in 2.0 mi NW 4.6 mph - 0.20 in Rain , Thunderstorm Heavy Thunderstorms and Rain
8:21 PM 73.4 °F - 71.6 °F 94% 30.18 in 5.0 mi NNW 3.5 mph - 0.22 in Rain , Thunderstorm Light Rain
8:36 PM 73.4 °F - 71.6 °F 94% 30.19 in 10.0 mi NW 5.8 mph - 0.22 in Rain Light Rain
8:51 PM 73.4 °F - 71.6 °F 94% 30.18 in 10.0 mi NNW 8.1 mph - 0.23 in Rain , Thunderstorm Light Rain
8:53 PM 73.9 °F - 71.1 °F 91% 30.17 in 10.0 mi NNW 5.8 mph - 0.23 in Rain , Thunderstorm Light Rain
9:06 PM 73.4 °F - 71.6 °F 94% 30.19 in 10.0 mi Variable 3.5 mph - 0.00 in Rain Light Rain
9:53 PM 73.9 °F - 70.0 °F 87% 30.18 in 10.0 mi North 4.6 mph - 0.02 in   Partly Cloudy
10:53 PM 73.9 °F - 70.0 °F 87% 30.19 in 10.0 mi NNE 3.5 mph - N/A   Scattered Clouds
11:53 PM 72.0 °F - 69.1 °F 91% 30.17 in 10.0 mi SSE 3.5 mph - N/A   Partly Cloudy